Washington Pass
Mazama
Latest observation 09/03 18:00 PDT
| Time (PDT) | Temp °F 2170' | RH % 2170' | Spd mph 2170' | Gust mph 2170' | Dir ° 2170' | Pcp1 in 2170' | PcpSum in 2170' | 24Sno in 2170' | SnoHt in 2170' | SR W/m² 2170' |
|---|---|---|---|---|---|---|---|---|---|---|
| 09/03 18:00 | 57 | 53 | 3 | 6 | 244 | 0.00 | 0.10 | -0.2 | -0.1 | 52 |
| 09/03 17:00 | 55 | 66 | 1 | 5 | 229 | 0.00 | 0.10 | -0.2 | 0.1 | 77 |
| 09/03 16:00 | 55 | 67 | 2 | 6 | 90 | 0.00 | 0.10 | -0.2 | -0.3 | 100 |
| 09/03 15:00 | 59 | 52 | 3 | 7 | 94 | 0.00 | 0.10 | -0.3 | -0.3 | 114 |
| 09/03 14:00 | 64 | 40 | 2 | 7 | 139 | 0.00 | 0.10 | -0.3 | -0.2 | 420 |
| 09/03 13:00 | 66 | 35 | 2 | 5 | 159 | 0.00 | 0.10 | -0.3 | -0.1 | 241 |
| 09/03 12:00 | 64 | 36 | 2 | 6 | 153 | 0.00 | 0.10 | -0.3 | 0.1 | 153 |
| 09/03 11:00 | 62 | 34 | 1 | 6 | 52 | 0.00 | 0.10 | -0.3 | 0.3 | 123 |
| 09/03 10:00 | 60 | 43 | 1 | 4 | 281 | 0.00 | 0.10 | -0.3 | -0.3 | 242 |
| 09/03 09:00 | 56 | 49 | 2 | 3 | 257 | 0.00 | 0.10 | -0.3 | 0.2 | 112 |
| 09/03 08:00 | 53 | 66 | 1 | 4 | 268 | 0.00 | 0.10 | -0.2 | -0.1 | 27 |
| 09/03 07:00 | 52 | 71 | 1 | 3 | 255 | 0.00 | 0.10 | -0.2 | -0.1 | 4 |
| 09/03 06:00 | 51 | 92 | 1 | 5 | 307 | 0.00 | 0.10 | -0.2 | 0.0 | 0 |
| 09/03 05:00 | 51 | 92 | 0 | 3 | 327 | 0.01 | 0.10 | -0.2 | 0.0 | 0 |
| 09/03 04:00 | 52 | 91 | 0 | 3 | 179 | 0.00 | 0.09 | -0.2 | -0.2 | 0 |
| 09/03 03:00 | 52 | 85 | 1 | 3 | 65 | 0.00 | 0.09 | -0.2 | -0.0 | 0 |
| 09/03 02:00 | 54 | 70 | 1 | 3 | 290 | 0.00 | 0.09 | -0.2 | -0.1 | 0 |
| 09/03 01:00 | 54 | 78 | 0 | 2 | 301 | 0.00 | 0.09 | -0.2 | 0.0 | 0 |
| 09/03 00:00 | 55 | 78 | 1 | 2 | 294 | 0.00 | 0.09 | -0.2 | 0.3 | 0 |
| 09/02 23:00 | 55 | 77 | 0 | 2 | 346 | 0.00 | 0.09 | -0.2 | 0.5 | 0 |
| 09/02 22:00 | 58 | 69 | 1 | 5 | 156 | 0.00 | 0.09 | -0.2 | 0.6 | 0 |
| 09/02 21:00 | 61 | 51 | 1 | 4 | 135 | 0.00 | 0.09 | -0.3 | 0.2 | 0 |
| 09/02 20:00 | 65 | 41 | 1 | 7 | 128 | 0.00 | 0.09 | -0.3 | 0.0 | 3 |
| 09/02 19:00 | 66 | 37 | 1 | 11 | 148 | 0.00 | 0.09 | -0.3 | -0.3 | 26 |
| 09/02 18:00 | 68 | 33 | 2 | 10 | 115 | 0.00 | 0.09 | -0.2 | -0.2 | 53 |
| 09/02 17:00 | 68 | 33 | 2 | 9 | 114 | 0.00 | 0.09 | -0.3 | -0.1 | 48 |
| 09/02 16:00 | 68 | 36 | 2 | 8 | 100 | 0.00 | 0.09 | -0.3 | -0.4 | 124 |
| 09/02 15:00 | 68 | 39 | 3 | 7 | 114 | 0.00 | 0.09 | -0.3 | -0.4 | 236 |
| 09/02 14:00 | 68 | 41 | 2 | 7 | 107 | 0.00 | 0.09 | -0.3 | -0.1 | 129 |
| 09/02 13:00 | 70 | 41 | 3 | 7 | 116 | 0.00 | 0.09 | -0.3 | -0.7 | 294 |
| 09/02 12:00 | 69 | 44 | 3 | 9 | 114 | 0.00 | 0.09 | -0.3 | -0.7 | 246 |
| 09/02 11:00 | 66 | 55 | 1 | 5 | 115 | 0.00 | 0.09 | -0.3 | -0.3 | 141 |
| 09/02 10:00 | 63 | 59 | 1 | 4 | 64 | 0.00 | 0.09 | -0.3 | -0.5 | 181 |
| 09/02 09:00 | 58 | 82 | 1 | 3 | 331 | 0.00 | 0.09 | -0.3 | -0.4 | 108 |
| 09/02 08:00 | 56 | 86 | 1 | 5 | 8 | 0.00 | 0.09 | -0.2 | -0.4 | 35 |
| 09/02 07:00 | 55 | 88 | 1 | 4 | 6 | 0.00 | 0.09 | -0.2 | -0.6 | 4 |
| 09/02 06:00 | 55 | 90 | 1 | 4 | 310 | 0.00 | 0.09 | -0.2 | -0.9 | 0 |
| 09/02 05:00 | 56 | 82 | 2 | 4 | 314 | 0.00 | 0.09 | -0.2 | -1.4 | 0 |
| 09/02 04:00 | 57 | 79 | 2 | 4 | 314 | 0.00 | 0.09 | -0.2 | -1.4 | 0 |
| 09/02 03:00 | 57 | 87 | 2 | 3 | 287 | 0.00 | 0.09 | -0.2 | -1.3 | 0 |
| 09/02 02:00 | 58 | 83 | 2 | 3 | 297 | 0.00 | 0.09 | -0.2 | -0.8 | 0 |
| 09/02 01:00 | 57 | 86 | 2 | 3 | 298 | 0.00 | 0.09 | -0.2 | -0.9 | 0 |
| 09/02 00:00 | 57 | 90 | 1 | 4 | 310 | 0.00 | 0.09 | -0.2 | -0.5 | 0 |
| 09/01 23:00 | 58 | 92 | 1 | 3 | 312 | 0.02 | 0.09 | -0.2 | 0.9 | 0 |
| 09/01 22:00 | 60 | 86 | 1 | 3 | 287 | 0.00 | 0.07 | -0.3 | 0.1 | 0 |
| 09/01 21:00 | 64 | 71 | 2 | 5 | 135 | 0.00 | 0.07 | -0.3 | -0.3 | 0 |
| 09/01 20:00 | 73 | 31 | 1 | 3 | 139 | 0.00 | 0.07 | -0.3 | -0.1 | 3 |
| 09/01 19:00 | 76 | 29 | 1 | 5 | 97 | 0.00 | 0.07 | -0.3 | -0.0 | 29 |
| 09/01 18:00 | 79 | 25 | 2 | 7 | 108 | 0.00 | 0.07 | -0.3 | -0.2 | 101 |
| 09/01 17:00 | 80 | 23 | 3 | 8 | 106 | 0.00 | 0.07 | -0.4 | -0.2 | 186 |
| 09/01 16:00 | 81 | 20 | 2 | 8 | 116 | 0.00 | 0.07 | -0.4 | -0.3 | 192 |
| 09/01 15:00 | 83 | 19 | 3 | 7 | 124 | 0.00 | 0.07 | -0.4 | 0.5 | 432 |
| 09/01 14:00 | 83 | 18 | 3 | 8 | 145 | 0.00 | 0.07 | -0.4 | 0.2 | 770 |
| 09/01 13:00 | 82 | 21 | 2 | 7 | 144 | 0.00 | 0.07 | -0.4 | 0.4 | 346 |
| 09/01 12:00 | 75 | 28 | 2 | 6 | 83 | 0.00 | 0.07 | -0.3 | -0.2 | 185 |
| 09/01 11:00 | 70 | 35 | 0 | 4 | 100 | 0.00 | 0.07 | -0.3 | -0.1 | 158 |
| 09/01 10:00 | 66 | 41 | 0 | 3 | 133 | 0.00 | 0.07 | -0.3 | -0.2 | 169 |
| 09/01 09:00 | 60 | 53 | 0 | 0 | 177 | 0.00 | 0.07 | -0.3 | 0.1 | 116 |
| 09/01 08:00 | 53 | 68 | 0 | 0 | 12 | 0.00 | 0.07 | -0.2 | -0.1 | 43 |
| 09/01 07:00 | 49 | 71 | 0 | 4 | 326 | 0.00 | 0.07 | -0.2 | -0.1 | 9 |
| 09/01 06:00 | 49 | 72 | 0 | 2 | 316 | 0.00 | 0.07 | -0.2 | -0.0 | 0 |
| 09/01 05:00 | 49 | 72 | 0 | 2 | 314 | 0.00 | 0.07 | -0.2 | -0.0 | 0 |
| 09/01 04:00 | 50 | 70 | 0 | 0 | 322 | 0.00 | 0.07 | -0.2 | -0.1 | 0 |
| 09/01 03:00 | 51 | 68 | 0 | 0 | 314 | 0.00 | 0.07 | -0.2 | -0.1 | 0 |
| 09/01 02:00 | 53 | 63 | 0 | 2 | 314 | 0.00 | 0.07 | -0.2 | 0.0 | 0 |
| 09/01 01:00 | 54 | 62 | 0 | 2 | 318 | 0.00 | 0.07 | -0.2 | 0.0 | 0 |
| 09/01 00:00 | 55 | 62 | 0 | 3 | 322 | 0.00 | 0.07 | -0.2 | -0.1 | 0 |
| 08/31 23:00 | 57 | 57 | 0 | 1 | 317 | 0.00 | 0.07 | -0.2 | -0.1 | 0 |
| 08/31 22:00 | 59 | 55 | 0 | 1 | 267 | 0.00 | 0.07 | -0.2 | 0.0 | 0 |
| 08/31 21:00 | 63 | 47 | 0 | 2 | 248 | 0.00 | 0.07 | -0.3 | -0.1 | 0 |
| 08/31 20:00 | 67 | 41 | 0 | 0 | 213 | 0.00 | 0.07 | -0.3 | -0.3 | 6 |
| 08/31 19:00 | 74 | 32 | 0 | 2 | 152 | 0.00 | 0.07 | -0.4 | -0.1 | 29 |
| 08/31 18:00 | 76 | 28 | 1 | 4 | 164 | 0.00 | 0.07 | -0.3 | -0.0 | 59 |
| 08/31 17:00 | 77 | 28 | 1 | 4 | 161 | 0.00 | 0.07 | -0.3 | -0.0 | 79 |
| 08/31 16:00 | 78 | 28 | 1 | 5 | 151 | 0.00 | 0.07 | -0.4 | -0.3 | 610 |
| 08/31 15:00 | 77 | 29 | 1 | 5 | 164 | 0.00 | 0.07 | -0.4 | -0.6 | 668 |
| 08/31 14:00 | 75 | 31 | 2 | 5 | 149 | 0.00 | 0.07 | -0.4 | -0.6 | 816 |
| 08/31 13:00 | 73 | 34 | 1 | 5 | 151 | 0.00 | 0.07 | -0.3 | 0.2 | 283 |
| 08/31 12:00 | 70 | 36 | 1 | 6 | 131 | 0.00 | 0.07 | -0.3 | -0.1 | 149 |
| 08/31 11:00 | 65 | 43 | 2 | 5 | 75 | 0.00 | 0.07 | -0.2 | 0.1 | 117 |
| 08/31 10:00 | 62 | 48 | 0 | 4 | 243 | 0.00 | 0.07 | -0.3 | -0.3 | 247 |
| 08/31 09:00 | 56 | 59 | 0 | 0 | 311 | 0.00 | 0.07 | -0.3 | -0.1 | 152 |
| 08/31 08:00 | 48 | 76 | 0 | 0 | 324 | 0.00 | 0.07 | -0.1 | -0.0 | 38 |
| 08/31 07:00 | 44 | 84 | 0 | 0 | 283 | 0.00 | 0.07 | -0.1 | -0.1 | 7 |
| 08/31 06:00 | 44 | 83 | 0 | 1 | 299 | 0.00 | 0.07 | -0.2 | -0.1 | 0 |
| 08/31 05:00 | 45 | 79 | 0 | 0 | 319 | 0.00 | 0.07 | -0.2 | -0.3 | 0 |
| 08/31 04:00 | 48 | 75 | 0 | 0 | 341 | 0.00 | 0.07 | -0.2 | -0.1 | 0 |
| 08/31 03:00 | 50 | 70 | 0 | 3 | 318 | 0.00 | 0.07 | -0.2 | -0.1 | 0 |
| 08/31 02:00 | 53 | 64 | 1 | 3 | 293 | 0.00 | 0.07 | -0.2 | 0.3 | 0 |
| 08/31 01:00 | 54 | 62 | 1 | 3 | 279 | 0.00 | 0.07 | -0.2 | 0.0 | 0 |
| 08/31 00:00 | 55 | 59 | 2 | 4 | 267 | 0.00 | 0.07 | -0.2 | -0.1 | 0 |
| 08/30 23:00 | 57 | 57 | 2 | 4 | 258 | 0.00 | 0.07 | -0.2 | 0.1 | 0 |
| 08/30 22:00 | 59 | 53 | 2 | 5 | 255 | 0.00 | 0.07 | -0.2 | 0.0 | 0 |
| 08/30 21:00 | 61 | 48 | 0 | 4 | 262 | 0.00 | 0.07 | -0.2 | 0.0 | 0 |
| 08/30 20:00 | 64 | 44 | 1 | 4 | 278 | 0.00 | 0.07 | -0.3 | -0.1 | 13 |
| 08/30 19:00 | 66 | 42 | 1 | 6 | 309 | 0.00 | 0.07 | -0.3 | -0.1 | 47 |
| 08/30 18:00 | 68 | 39 | 1 | 5 | 310 | 0.00 | 0.07 | -0.3 | -0.1 | 73 |
| 08/30 17:00 | 69 | 37 | 2 | 5 | 303 | 0.00 | 0.07 | -0.3 | -0.1 | 108 |
| 08/30 16:00 | 72 | 33 | 2 | 10 | 339 | 0.00 | 0.07 | -0.4 | -0.0 | 599 |
| 08/30 15:00 | 70 | 35 | 2 | 11 | 360 | 0.00 | 0.07 | -0.4 | -0.2 | 350 |
| 08/30 14:00 | 69 | 35 | 1 | 6 | 302 | 0.00 | 0.07 | -0.3 | -0.1 | 491 |
| 08/30 13:00 | 70 | 32 | 2 | 6 | 301 | 0.00 | 0.07 | -0.3 | -0.0 | 448 |
| 08/30 12:00 | 68 | 33 | 2 | 5 | 299 | 0.00 | 0.07 | -0.3 | -0.2 | 182 |
| 08/30 11:00 | 65 | 36 | 3 | 6 | 296 | 0.00 | 0.07 | -0.3 | 0.0 | 171 |
| 08/30 10:00 | 61 | 41 | 3 | 5 | 288 | 0.00 | 0.07 | -0.3 | 0.1 | 161 |
| 08/30 09:00 | 60 | 42 | 2 | 5 | 290 | 0.00 | 0.07 | -0.2 | 0.1 | 134 |
| 08/30 08:00 | 56 | 50 | 2 | 4 | 284 | 0.00 | 0.07 | -0.2 | -0.1 | 48 |
| 08/30 07:00 | 53 | 53 | 1 | 4 | 281 | 0.00 | 0.07 | -0.2 | -0.9 | 7 |
| 08/30 06:00 | 52 | 54 | 2 | 4 | 273 | 0.00 | 0.07 | -0.3 | -0.8 | 0 |
| 08/30 05:00 | 51 | 54 | 2 | 4 | 261 | 0.00 | 0.07 | -0.3 | -0.6 | 0 |
| 08/30 04:00 | 54 | 51 | 2 | 4 | 272 | 0.00 | 0.07 | -0.3 | -0.5 | 0 |
| 08/30 03:00 | 53 | 54 | 2 | 5 | 280 | 0.00 | 0.07 | -0.2 | -0.6 | 0 |
| 08/30 02:00 | 55 | 50 | 2 | 4 | 269 | 0.00 | 0.07 | -0.2 | -0.4 | 0 |
| 08/30 01:00 | 54 | 51 | 2 | 5 | 263 | 0.00 | 0.07 | -0.2 | -0.5 | 0 |
| 08/30 00:00 | 52 | 56 | 1 | 4 | 251 | 0.00 | 0.07 | -0.2 | -0.5 | 0 |
| 08/29 23:00 | 55 | 50 | 2 | 4 | 295 | 0.00 | 0.07 | -0.2 | -0.5 | 0 |
| 08/29 22:00 | 56 | 49 | 2 | 4 | 293 | 0.00 | 0.07 | -0.3 | -0.5 | 0 |
| 08/29 21:00 | 58 | 46 | 2 | 5 | 302 | 0.00 | 0.07 | -0.2 | -0.3 | 0 |
| 08/29 20:00 | 58 | 46 | 2 | 5 | 299 | 0.00 | 0.07 | -0.3 | -0.3 | 14 |
| 08/29 19:00 | 59 | 46 | 2 | 5 | 305 | 0.00 | 0.07 | -0.3 | -0.4 | 56 |
| 08/29 18:00 | 60 | 45 | 2 | 5 | 312 | 0.00 | 0.07 | -0.2 | 0.5 | 95 |
| 08/29 17:00 | 59 | 52 | 2 | 5 | 302 | 0.00 | 0.07 | -0.2 | -0.2 | 112 |
| 08/29 16:00 | 58 | 55 | 2 | 4 | 293 | 0.00 | 0.07 | -0.2 | -0.2 | 99 |
| 08/29 15:00 | 58 | 62 | 2 | 5 | 312 | 0.00 | 0.07 | -0.2 | -0.2 | 199 |
| 08/29 14:00 | 62 | 43 | 2 | 6 | 276 | 0.00 | 0.07 | -0.3 | -0.2 | 232 |
| 08/29 13:00 | 60 | 55 | 1 | 4 | 44 | 0.00 | 0.07 | -0.3 | 0.2 | 266 |
| 08/29 12:00 | 55 | 69 | 2 | 5 | 72 | 0.00 | 0.07 | -0.2 | -0.3 | 115 |
| 08/29 11:00 | 55 | 72 | 1 | 5 | 49 | 0.00 | 0.07 | -0.2 | -0.3 | 93 |
| 08/29 10:00 | 54 | 84 | 1 | 4 | 301 | 0.00 | 0.07 | -0.2 | -0.2 | 23 |
| 08/29 09:00 | 57 | 64 | 2 | 5 | 293 | 0.00 | 0.07 | -0.2 | -0.1 | 10 |
| 08/29 08:00 | 52 | 90 | 1 | 4 | 290 | 0.00 | 0.07 | -0.2 | 0.0 | 4 |
| 08/29 07:00 | 52 | 85 | 3 | 5 | 297 | 0.07 | 0.07 | -0.2 | -0.2 | 1 |
| 08/29 06:00 | 61 | 47 | 2 | 4 | 275 | 0.00 | 0.00 | -0.2 | 0.1 | 0 |
| 08/29 05:00 | 62 | 44 | 2 | 3 | 283 | 0.00 | 0.00 | -0.3 | 0.0 | 0 |
| 08/29 04:00 | 62 | 44 | 2 | 4 | 318 | 0.00 | 0.00 | -0.3 | 0.0 | 0 |
| 08/29 03:00 | 62 | 43 | 1 | 3 | 298 | 0.00 | 0.00 | -0.3 | -0.1 | 0 |
| 08/29 02:00 | 63 | 43 | 2 | 5 | 308 | 0.00 | 0.00 | -0.3 | -0.1 | 0 |
| 08/29 01:00 | 63 | 43 | 2 | 4 | 276 | 0.00 | 0.00 | -0.3 | 0.1 | 0 |
| 08/29 00:00 | 64 | 43 | 2 | 4 | 283 | 0.00 | 0.00 | -0.3 | -0.1 | 0 |
| 08/28 23:00 | 65 | 39 | 2 | 4 | 278 | 0.00 | 0.00 | -0.3 | -0.0 | 0 |
| 08/28 22:00 | 66 | 37 | 2 | 4 | 272 | 0.00 | 0.00 | -0.3 | -0.4 | 0 |
| 08/28 21:00 | 68 | 35 | 2 | 4 | 268 | 0.00 | 0.00 | -0.3 | -0.5 | 0 |
| 08/28 20:00 | 70 | 32 | 2 | 6 | 267 | 0.00 | 0.00 | -0.3 | 0.2 | 9 |
| 08/28 19:00 | 73 | 28 | 2 | 4 | 282 | 0.00 | 0.00 | -0.4 | -0.1 | 52 |
| 08/28 18:00 | 75 | 25 | 1 | 5 | 282 | 0.00 | 0.00 | -0.3 | -0.4 | 80 |
| 08/28 17:00 | 76 | 24 | 2 | 6 | 286 | 0.00 | 0.00 | -0.3 | -0.6 | 92 |
| 08/28 16:00 | 77 | 22 | 2 | 6 | 292 | 0.00 | 0.00 | -0.4 | 0.1 | 696 |
| 08/28 15:00 | 79 | 20 | 2 | 5 | 307 | 0.00 | 0.00 | -0.4 | -0.3 | 835 |
| 08/28 14:00 | 78 | 21 | 1 | 5 | 293 | 0.00 | 0.00 | -0.4 | -0.5 | 885 |
| 08/28 13:00 | 76 | 23 | 2 | 9 | 304 | 0.00 | 0.00 | -0.3 | -0.1 | 231 |
| 08/28 12:00 | 73 | 25 | 2 | 6 | 295 | 0.00 | 0.00 | -0.3 | -0.5 | 178 |
| 08/28 11:00 | 70 | 28 | 1 | 8 | 351 | 0.00 | 0.00 | -0.3 | -0.1 | 111 |
| 08/28 10:00 | 69 | 31 | 1 | 7 | 295 | 0.00 | 0.00 | -0.3 | -0.6 | 213 |
| 08/28 09:00 | 64 | 42 | 0 | 2 | 320 | 0.00 | 0.00 | -0.3 | -0.3 | 133 |
| 08/28 08:00 | 56 | 59 | 0 | 0 | 327 | 0.00 | 0.00 | -0.2 | -0.2 | 29 |
| 08/28 07:00 | 53 | 60 | 0 | 0 | 341 | 0.00 | 0.00 | -0.2 | -0.2 | 11 |
| 08/28 06:00 | 51 | 66 | 0 | 2 | 23 | 0.00 | 0.00 | -0.2 | -0.2 | 0 |
| 08/28 05:00 | 53 | 61 | 0 | 0 | 222 | 0.00 | 0.00 | -0.2 | -0.5 | 0 |
| 08/28 04:00 | 55 | 57 | 0 | 0 | 255 | 0.00 | 0.00 | -0.2 | -0.3 | 0 |
| 08/28 03:00 | 58 | 50 | 0 | 3 | 316 | 0.00 | 0.00 | -0.2 | -0.3 | 0 |
| 08/28 02:00 | 60 | 48 | 1 | 4 | 300 | 0.00 | 0.00 | -0.2 | -0.2 | 0 |
| 08/28 01:00 | 65 | 40 | 3 | 6 | 271 | 0.00 | 0.00 | -0.3 | -0.2 | 0 |
| 08/28 00:00 | 65 | 40 | 3 | 6 | 275 | 0.00 | 0.00 | -0.3 | -0.3 | 0 |
| 08/27 23:00 | 65 | 40 | 2 | 5 | 282 | 0.00 | 0.00 | -0.3 | -0.3 | 0 |
| 08/27 22:00 | 65 | 39 | 2 | 4 | 282 | 0.00 | 0.00 | -0.3 | -0.3 | 0 |
| 08/27 21:00 | 66 | 37 | 3 | 7 | 287 | 0.00 | 0.00 | -0.3 | -0.5 | 0 |
| 08/27 20:00 | 67 | 34 | 2 | 5 | 286 | 0.00 | 0.00 | -0.3 | -0.1 | 7 |
| 08/27 19:00 | 69 | 32 | 2 | 5 | 287 | 0.00 | 0.00 | -0.3 | -0.2 | 40 |

